Theta_e
312 313 313 314 316 319 321 325 322 320 322 316 317 319 317 319 320 321 320 320 321 320 320 320 320 319 320 320 320 319 320 320 320 319 320 322 320 318 319 318 318 319 317 329 336 333 335 336 337 338 339 340 341 341 340 340 341 340 338 337 336 334 333 333 331 330 329 328 328 329 326 321 318 319 318 319 319 320 318 321 327 327 329 329 329 331 332 334 334 333 331 328 325 322 320 319 321
313 313 314 316 318 323 325 325 320 317 318 315 317 319 317 320 320 320 319 320 321 320 319 320 320 319 319 320 320 320 319 319 319 320 321 322 323 319 317 319 317 319 318 329 338 334 336 339 337 337 338 339 339 340 340 340 340 339 338 337 337 336 334 333 331 331 330 328 328 328 327 322 318 319 318 320 320 320 319 320 326 327 328 328 328 332 333 335 334 333 332 330 327 324 322 319 318
316 315 317 321 322 324 326 323 319 316 315 314 315 318 319 320 319 319 319 320 320 319 319 319 320 319 320 321 320 320 319 319 319 320 323 323 325 320 316 319 317 319 319 328 339 336 336 340 337 337 338 339 339 339 339 339 338 337 336 335 336 336 334 333 331 332 332 331 331 329 326 322 319 319 319 320 321 321 319 319 325 327 327 326 328 332 334 335 334 333 333 332 330 328 327 325 322
318 318 319 323 325 323 324 323 320 316 314 314 314 317 319 319 318 319 319 320 320 320 320 320 320 319 321 320 320 320 319 320 319 320 323 321 320 318 316 318 318 319 319 326 338 338 338 339 338 336 338 339 338 338 338 338 338 335 335 335 335 335 333 333 331 332 333 332 332 330 326 322 319 319 320 321 321 321 320 319 324 327 326 327 328 331 334 335 334 333 333 332 331 331 330 329 326
318 320 320 323 326 323 323 321 320 317 315 315 315 317 319 318 318 319 319 320 320 319 320 320 320 319 319 320 320 321 319 320 320 320 322 320 317 317 316 317 318 318 319 324 335 339 337 337 337 336 337 338 338 338 338 337 338 335 334 335 335 335 333 332 331 331 332 332 331 330 327 323 320 320 320 322 322 322 321 319 322 325 324 328 330 329 333 334 334 333 332 330 328 328 327 326 324
319 320 319 321 324 322 322 319 317 317 318 319 317 317 318 318 318 318 319 319 319 318 318 320 319 319 319 319 319 319 318 319 321 320 320 319 317 316 316 317 318 318 319 323 334 338 336 334 334 336 337 338 338 338 337 337 337 336 335 335 334 335 334 333 331 330 331 332 332 331 329 325 322 321 321 322 323 323 322 320 320 322 322 326 330 330 332 332 333 332 329 326 322 320 318 318 317
319 322 322 322 322 322 323 318 317 318 318 321 318 318 318 318 319 319 319 318 318 318 317 319 319 319 319 318 318 318 317 318 319 319 318 318 317 315 315 316 317 319 319 323 333 336 332 331 331 334 336 336 337 337 336 336 337 336 336 335 334 334 335 333 332 330 329 331 333 333 331 329 325 321 322 324 326 325 324 322 320 319 319 323 327 329 330 331 331 328 324 320 315 312 311 311 311
319 324 324 324 323 322 322 319 319 319 318 319 319 319 318 319 319 319 319 318 318 318 317 318 318 317 318 318 320 318 316 316 316 316 317 318 317 316 315 315 316 317 319 322 330 333 327 327 329 331 334 334 335 336 336 335 336 336 337 335 333 334 334 334 332 331 330 332 333 332 332 332 330 324 323 327 328 327 325 323 321 320 320 322 325 327 328 328 327 324 319 315 310 308 308 308 308
319 322 323 324 323 320 320 319 320 320 318 319 319 318 318 318 318 318 318 318 318 318 317 317 318 317 318 319 320 318 315 314 315 315 315 317 317 316 315 315 315 316 318 319 326 330 324 324 327 329 331 333 334 335 337 336 335 336 337 335 333 333 334 334 333 332 331 332 334 333 332 332 331 327 326 329 329 329 327 325 324 324 324 325 325 325 325 325 323 320 317 315 310 308 307 308 307
320 321 323 324 320 318 318 318 319 319 319 319 319 318 318 318 318 318 318 318 318 318 317 317 318 317 318 319 319 317 315 314 314 314 314 315 316 316 315 315 315 315 316 317 321 324 321 321 324 327 329 332 334 334 336 336 336 335 336 335 334 333 333 333 333 332 332 331 332 333 333 332 331 329 329 331 331 330 329 328 327 327 326 325 323 322 322 321 319 318 319 319 312 307 307 307 306
321 320 322 322 318 316 316 318 319 320 319 318 319 318 317 317 318 318 318 319 317 318 318 317 318 317 317 319 319 316 314 314 314 314 314 315 315 316 316 315 315 315 315 316 316 318 319 319 321 324 326 329 332 333 334 335 335 335 335 335 334 333 333 333 331 331 331 330 330 331 331 331 330 329 330 331 332 332 331 330 329 329 328 326 324 322 321 320 320 321 322 322 315 308 306 306 306
320 320 320 320 318 317 318 319 319 320 319 318 318 317 317 317 318 319 318 319 318 318 318 317 318 317 318 318 318 315 314 314 314 314 314 314 314 315 315 315 315 315 315 315 315 316 317 318 320 321 323 325 328 330 332 334 335 335 334 334 334 333 333 333 332 331 330 330 329 329 330 329 329 330 330 331 333 332 332 331 330 330 330 329 328 326 325 325 325 326 325 324 318 309 306 306 305
320 320 319 318 319 320 319 319 320 319 319 319 318 317 317 317 318 318 318 318 318 318 317 316 317 317 318 318 317 316 315 314 314 314 314 314 314 314 315 316 315 315 315 315 315 315 315 316 317 319 320 322 325 327 329 332 334 334 333 334 334 332 332 332 333 332 331 329 328 328 329 329 328 330 330 330 332 332 332 331 330 329 329 330 330 330 330 330 329 328 326 325 322 312 307 305 305
320 320 319 319 320 319 319 320 320 318 318 319 318 317 317 317 317 317 318 318 318 317 316 316 316 317 317 317 317 316 315 314 314 314 314 314 314 314 315 316 316 316 315 315 315 315 315 315 315 316 317 319 322 324 326 328 332 333 333 333 333 333 332 331 332 331 330 328 327 327 328 328 327 328 330 330 330 331 331 331 331 330 329 329 330 330 330 330 329 328 327 326 324 316 309 306 304
319 319 319 319 318 317 319 320 319 317 318 319 318 317 317 317 317 317 317 317 318 317 316 316 316 316 317 317 317 316 315 314 314 314 314 314 314 314 314 315 316 316 316 315 315 315 316 315 315 315 315 317 318 322 325 325 329 332 332 333 333 333 332 332 331 330 329 327 326 326 326 327 326 327 329 329 330 329 330 331 332 331 329 329 329 329 329 329 327 326 325 324 324 318 311 308 305
316 319 320 317 316 316 318 320 319 318 318 319 317 317 318 317 316 317 317 316 317 317 316 316 315 315 315 316 315 314 314 314 314 314 314 314 314 314 314 315 316 316 317 315 315 315 316 316 316 315 315 316 315 322 330 329 330 331 331 332 332 332 333 333 333 332 331 328 325 325 325 327 326 326 328 329 329 327 328 330 331 331 330 328 328 328 327 326 325 325 323 322 323 320 314 311 306
315 320 319 316 316 316 317 319 318 318 318 319 317 317 318 318 317 317 316 316 317 317 316 315 315 315 314 314 314 314 314 314 314 314 314 313 314 314 314 314 315 316 316 316 315 315 315 315 316 316 316 316 315 321 330 332 332 331 329 332 332 332 332 333 334 334 333 330 326 324 324 326 326 327 328 328 329 328 327 327 328 329 329 329 329 328 327 324 323 323 323 323 324 320 316 313 309
319 322 318 316 316 316 318 319 319 320 319 319 318 318 318 318 318 317 316 316 317 317 316 314 314 314 313 314 314 314 314 313 314 313 313 313 313 314 314 314 315 315 315 316 316 315 315 315 315 316 316 317 316 317 324 328 329 328 330 331 332 331 330 331 334 334 333 332 329 327 326 325 325 328 329 329 330 329 328 327 326 327 328 329 329 328 326 324 324 324 324 324 324 321 317 315 311
321 320 317 317 317 317 319 320 319 320 319 318 318 317 317 317 318 317 316 317 318 317 316 314 314 314 313 313 313 313 313 313 313 313 313 313 313 313 313 314 314 315 315 315 316 316 315 315 315 315 316 316 316 316 317 321 323 325 330 331 331 331 329 329 331 332 332 332 331 330 330 328 325 326 328 329 330 329 328 327 326 327 327 328 329 328 326 325 325 324 324 324 323 321 320 318 313
321 320 320 318 318 317 318 319 318 318 318 318 318 317 317 317 317 316 317 318 318 317 316 316 316 315 313 312 312 312 312 312 312 312 312 312 313 313 313 313 313 314 314 314 315 315 315 315 315 315 316 315 316 317 315 321 325 324 327 331 333 332 331 332 332 332 332 331 331 330 332 331 328 326 327 328 327 328 328 328 327 327 327 329 330 330 328 327 326 325 324 324 323 322 321 320 316
320 320 320 318 317 317 316 318 318 317 317 317 318 316 317 317 316 316 317 317 318 317 315 314 315 313 312 312 312 312 312 312 312 313 313 313 313 313 313 313 313 313 313 314 314 314 315 315 315 315 316 316 316 317 316 321 328 327 327 331 333 333 334 334 333 332 332 332 332 331 331 331 330 328 328 328 327 327 328 329 328 328 328 329 331 331 329 330 327 326 327 326 324 324 323 323 320
319 318 319 318 317 318 317 317 317 316 316 316 317 316 316 317 316 316 316 316 317 315 312 312 312 312 311 311 311 311 312 312 312 313 313 314 314 314 313 313 313 313 313 313 314 313 314 314 315 315 314 316 315 317 317 318 325 329 329 331 332 331 332 332 333 334 334 334 332 331 331 330 331 330 329 328 328 328 328 327 327 328 328 328 329 328 328 331 328 325 327 327 326 325 324 324 323
319 319 318 318 318 318 318 317 316 315 315 316 316 316 316 316 316 316 315 316 314 311 311 311 311 311 310 311 311 311 312 312 312 313 313 314 314 314 313 313 313 313 313 313 313 313 314 314 313 314 314 315 315 315 317 317 324 329 329 330 331 331 330 331 334 336 336 334 331 329 330 330 331 331 330 329 329 329 329 328 327 327 326 327 328 326 327 329 327 324 326 327 325 325 325 325 325
319 319 318 318 317 317 317 317 316 315 315 316 315 315 315 316 316 315 314 313 311 310 310 310 310 310 310 311 311 311 312 312 312 312 313 313 313 313 313 313 313 312 313 313 313 313 313 314 313 314 313 313 314 315 317 319 324 329 329 329 331 331 330 330 333 334 332 331 329 328 330 331 331 332 333 331 331 330 330 330 328 327 326 326 328 328 327 325 324 325 327 328 326 326 326 325 325
319 319 318 317 316 317 317 316 315 315 315 315 314 314 316 316 315 314 314 311 310 310 310 310 310 310 310 311 311 311 312 312 312 312 313 313 313 313 312 312 312 312 313 312 313 313 313 314 314 314 313 314 317 318 321 324 326 329 329 329 330 329 329 329 329 328 328 329 328 328 330 332 332 332 333 332 332 332 331 330 329 329 328 328 329 328 326 324 325 326 327 327 326 325 325 325 326
318 318 317 317 317 317 316 316 316 315 315 315 314 315 316 315 314 314 313 310 310 309 309 310 310 310 310 310 310 311 311 311 311 312 312 312 312 312 312 312 312 312 312 312 313 313 314 314 314 315 313 315 320 322 325 326 327 328 327 328 329 329 329 327 325 327 329 330 329 327 328 329 331 332 332 332 333 334 332 331 330 330 329 328 328 327 327 327 327 326 326 326 326 327 327 326 325
316 317 317 317 317 317 316 316 317 316 315 314 314 316 316 313 313 314 311 310 309 309 309 309 309 309 310 310 310 310 310 311 311 311 311 311 312 311 311 311 311 312 312 312 312 313 314 315 316 316 315 315 321 324 325 325 325 325 324 326 329 328 328 328 326 330 332 331 330 329 328 327 328 330 329 329 330 332 332 332 332 330 328 326 327 328 327 327 326 325 324 324 325 328 327 325 324
315 316 316 317 318 317 317 316 316 315 315 314 314 316 315 312 313 314 311 309 309 309 310 309 309 309 309 309 309 309 310 310 310 310 310 311 311 311 311 311 312 312 312 313 313 313 314 316 316 317 318 319 321 324 324 324 324 324 324 326 330 329 327 328 328 330 331 329 330 331 329 327 327 327 327 327 326 328 329 331 332 330 329 327 327 327 325 325 325 323 322 322 324 326 325 325 325
316 315 317 319 318 318 318 317 315 315 314 313 314 315 314 313 313 312 310 309 309 310 310 309 309 308 308 308 308 309 309 309 310 310 310 310 310 311 311 311 312 313 313 314 314 314 316 317 317 318 321 322 321 322 323 324 324 326 326 326 330 329 327 329 329 329 328 327 327 328 328 328 327 327 328 329 327 327 327 329 330 329 329 328 326 326 325 326 325 324 322 321 323 325 325 325 325
316 316 317 318 319 319 318 316 315 315 314 313 314 316 317 316 313 311 309 310 310 311 311 310 309 308 308 308 308 308 308 309 309 309 310 310 310 311 311 312 313 313 314 316 316 317 317 318 319 319 322 324 323 322 322 324 325 327 327 325 328 328 327 328 328 326 325 324 324 324 324 325 326 326 328 328 328 328 327 327 329 327 327 328 327 327 327 327 326 326 324 322 323 326 325 325 324
317 317 317 318 319 318 317 316 316 316 314 313 314 316 318 316 313 311 310 310 311 312 312 310 309 308 308 308 308 308 308 309 309 309 309 310 310 311 311 312 313 314 316 318 318 319 319 319 320 321 322 323 323 322 321 323 324 325 325 324 326 326 325 325 324 323 322 323 323 324 324 324 325 325 326 327 327 327 327 327 328 327 326 326 326 325 325 325 325 325 324 324 325 326 325 325 324
317 317 318 319 319 318 317 316 317 316 314 313 314 316 318 315 313 312 310 310 311 312 313 311 309 308 307 307 307 307 307 308 308 309 309 310 310 311 311 312 313 316 317 318 319 320 320 319 320 321 322 322 322 322 321 322 322 322 323 323 323 323 322 322 322 323 323 323 323 324 324 324 324 324 325 325 325 326 326 326 326 325 324 324 324 324 324 324 324 324 324 325 325 325 324 324 323
319 317 318 319 319 319 318 316 316 316 315 315 315 316 318 315 313 312 310 311 311 312 313 311 309 308 307 307 306 306 307 307 308 308 309 310 310 311 311 312 314 317 317 318 319 320 320 320 320 321 321 321 321 321 322 322 322 322 322 322 321 321 321 322 322 323 322 322 323 323 323 324 324 324 323 323 323 324 324 324 324 323 323 323 323 323 324 323 323 323 323 323 323 323 323 323 323
319 319 319 319 319 319 318 317 316 316 315 316 316 316 318 316 314 312 310 311 312 313 312 311 309 308 307 307 306 306 307 307 307 308 309 309 310 311 311 313 314 316 316 318 319 319 319 319 320 320 320 320 320 321 321 321 321 321 321 320 320 320 320 321 321 321 321 321 321 321 322 322 322 322 322 321 321 322 322 323 322 322 322 322 322 322 322 322 321 321 321 321 321 320 321 321 321
319 320 319 319 319 318 318 318 316 316 315 317 317 317 318 316 314 312 311 310 312 313 312 310 309 308 307 307 306 306 306 306 307 308 309 309 310 310 311 314 315 315 316 318 318 318 318 318 319 319 319 319 319 319 319 318 319 319 319 319 319 319 319 320 320 319 319 319 319 320 320 320 320 319 319 319 319 320 320 320 320 320 320 320 320 320 320 320 321 320 320 319 319 319 319 319 319
319 320 319 319 319 318 320 318 316 316 317 317 318 318 319 318 315 313 311 310 311 312 311 310 309 308 307 307 306 306 305 305 306 308 309 309 309 309 311 314 315 315 315 316 317 317 317 317 317 318 318 318 318 318 317 317 318 318 318 318 318 318 318 318 318 318 319 319 319 319 319 319 318 318 318 318 318 318 318 317 317 316 317 317 318 318 318 318 318 318 317 316 315 314 314 314 314
318 319 319 319 319 319 320 318 315 315 317 318 319 318 319 319 317 314 311 311 311 312 311 310 309 308 307 307 306 306 305 305 307 308 308 308 309 310 312 314 315 315 314 314 316 316 316 316 316 317 316 317 317 317 316 316 317 317 317 317 317 316 317 317 317 316 316 316 315 316 316 315 314 314 314 314 313 313 312 311 310 310 310 310 311 311 311 311 311 310 310 309 308 308 308 308 307
318 318 318 319 319 319 319 317 314 314 316 317 318 318 318 319 318 315 311 311 312 312 311 311 310 308 307 307 306 305 305 305 307 307 308 308 309 310 312 315 315 315 314 315 316 315 315 316 315 316 315 315 315 315 315 314 314 314 314 314 313 313 314 314 313 312 311 310 310 310 309 308 307 307 307 307 306 306 306 305 305 305 305 305 305 304 304 304 304 304 304 304 304 303 303 303 303
318 318 318 319 319 320 319 317 314 313 315 317 318 318 318 318 318 315 312 312 312 311 311 310 309 308 307 307 306 305 304 305 306 307 307 308 308 310 312 315 315 315 315 316 316 316 315 315 314 314 314 313 313 312 312 310 310 310 310 309 309 310 310 309 308 307 307 306 306 305 305 305 304 304 304 303 303 303 303 303 302 302 302 302 302 302 302 301 301 301 301 300 301 300 299 299 300
318 318 318 319 320 320 320 317 314 313 314 316 317 316 317 318 317 314 312 312 311 309 308 308 308 307 307 306 305 305 305 305 305 306 306 306 308 310 312 314 315 315 315 316 315 315 314 313 312 311 311 310 309 309 308 307 307 307 307 307 307 306 306 305 305 304 304 304 304 304 303 303 302 302 301 301 301 301 300 300 299 299 299 299 299 299 299 298 297 297 297 296 296 296 295 295 296
318 319 318 319 320 320 320 318 316 315 315 315 315 317 318 319 319 315 310 309 308 307 306 306 306 306 306 305 305 305 305 304 304 305 305 306 308 310 311 313 314 314 314 314 313 312 311 309 308 308 308 307 306 306 306 306 306 306 305 305 305 305 304 304 303 303 302 302 302 301 301 300 300 300 299 299 299 298 298 297 297 297 297 296 296 296 296 296 295 295 295 294 294 294 293 293 293
319 319 319 318 319 319 320 319 318 318 319 316 316 321 322 320 321 318 310 307 308 307 306 307 306 305 305 304 304 304 304 304 303 304 305 306 308 309 310 310 310 311 310 309 308 307 306 306 306 305 305 305 305 305 305 305 305 305 305 305 304 304 303 302 302 301 300 300 299 299 299 298 298 298 297 297 297 297 297 296 296 296 295 295 295 295 295 295 294 294 294 294 293 293 292 292 292
320 320 319 318 319 319 319 319 319 320 322 317 315 321 322 320 320 318 311 309 309 307 307 308 306 305 305 305 304 303 303 303 303 304 305 306 307 308 308 308 308 308 307 306 305 304 304 304 304 304 304 304 304 304 304 304 304 303 303 303 303 303 302 301 300 299 299 298 298 297 297 297 297 296 296 296 296 296 295 295 295 295 295 295 295 294 294 294 294 294 293 293 293 293 293 292 292
321 319 318 319 319 319 320 320 319 320 321 317 315 318 320 319 319 316 312 312 310 308 307 308 307 306 305 305 305 303 303 303 303 304 305 305 306 306 306 306 305 305 304 304 304 304 303 303 303 303 303 303 303 303 303 302 302 302 302 302 301 301 301 300 298 298 297 297 297 296 296 296 296 296 295 295 295 295 295 295 295 294 294 294 294 294 294 293 293 293 293 292 292 292 292 291 291
319 316 317 318 318 319 319 319 319 319 319 319 318 317 318 320 318 314 312 313 313 310 308 308 307 306 305 305 305 303 303 302 303 304 304 305 305 305 304 304 304 303 303 303 303 303 303 302 302 302 302 302 302 302 302 301 301 301 300 300 300 299 299 298 297 296 296 296 296 296 295 295 295 295 295 295 295 295 295 294 294 294 294 293 293 293 292 292 292 292 292 292 291 291 291 291 290
316 314 316 316 316 317 318 318 319 318 319 320 320 318 319 321 319 315 314 314 315 314 310 308 308 306 306 305 304 303 302 302 303 303 304 304 304 303 303 303 303 302 302 302 302 302 302 302 302 301 301 301 301 301 300 300 300 299 299 299 299 298 298 297 296 296 295 295 295 295 295 295 294 295 295 294 294 294 294 294 294 293 293 293 292 292 292 292 291 291 291 290 290 290 290 290 289
315 316 317 316 316 316 316 317 317 318 320 320 319 319 319 320 320 319 317 316 316 316 312 309 308 307 306 305 304 303 302 302 302 303 303 303 303 302 302 302 302 302 302 302 302 301 301 301 301 301 301 300 300 300 299 299 298 298 298 298 298 298 297 297 296 296 295 295 295 294 294 294 294 294 294 294 294 294 293 293 293 293 292 292 292 291 291 291 290 290 290 290 289 289 289 289 288
316 317 317 318 318 316 316 317 316 319 323 319 317 318 319 320 320 319 318 315 316 316 312 309 308 307 306 305 304 303 302 302 302 302 302 302 302 302 302 302 301 301 301 301 301 301 301 300 300 300 300 300 299 299 298 298 298 298 298 297 297 297 296 296 296 295 294 294 294 294 294 294 294 294 294 294 294 293 293 292 292 292 291 291 291 290 290 290 289 289 289 289 289 288 288 288 288
316 317 317 320 321 319 320 320 318 321 321 314 313 316 319 319 319 318 317 314 314 315 313 311 309 308 307 305 304 303 302 302 302 302 302 302 302 301 301 301 301 301 301 301 300 300 300 300 299 299 299 299 298 298 298 298 297 297 297 297 297 296 296 295 295 295 294 294 294 294 294 294 294 294 294 294 293 293 292 292 292 291 291 291 290 290 290 289 289 289 288 288 288 288 288 287 287
315 317 318 321 323 323 323 323 321 322 318 311 311 315 317 318 317 317 316 313 312 312 312 311 309 307 307 305 304 303 302 302 301 301 301 301 301 301 301 301 301 301 300 300 300 300 299 299 299 299 299 298 298 298 297 297 297 297 297 296 296 296 295 295 295 294 294 294 294 294 294 294 294 294 294 293 293 293 292 292 291 291 291 290 290 290 289 289 289 289 288 288 288 288 288 287 287
315 317 318 320 323 324 324 323 322 322 316 311 311 315 318 318 316 313 311 309 308 309 310 310 309 307 307 305 303 302 302 301 301 301 301 301 301 301 301 300 300 301 300 300 300 300 299 299 299 298 298 298 297 297 296 296 296 296 296 296 295 295 295 295 294 294 294 293 294 294 294 294 294 294 293 293 293 292 292 291 291 290 290 290 289 289 289 289 289 289 288 288 288 288 288 287 287
315 316 318 320 320 321 320 318 316 316 315 313 313 315 317 316 313 309 307 307 306 307 308 309 309 307 306 305 303 302 302 301 301 301 301 301 300 301 301 301 301 301 300 300 300 300 299 299 299 298 298 297 297 296 296 296 296 296 296 295 295 294 294 294 294 294 293 294 294 294 294 294 293 293 293 292 291 291 290 290 289 289 289 288 288 288 288 288 288 288 288 288 288 288 288 287 287
316 316 318 317 317 317 317 315 313 313 317 318 315 315 316 315 313 309 307 307 306 306 307 308 309 307 306 305 303 302 302 301 301 301 301 301 301 301 301 301 301 301 300 300 300 300 300 299 299 298 297 297 296 295 295 295 296 296 295 294 294 293 293 293 293 294 294 294 294 294 293 293 293 292 291 291 290 289 289 288 288 288 288 288 288 287 287 287 287 287 287 287 287 287 287 287 287
316 316 317 316 315 316 316 318 317 317 320 320 317 317 317 317 317 312 308 309 307 306 306 307 308 307 306 305 304 302 302 301 301 301 301 301 301 301 301 301 301 301 301 300 300 300 300 299 299 298 297 296 295 295 295 295 295 295 294 293 293 293 293 293 293 293 293 293 293 293 293 292 291 291 290 290 289 289 288 288 288 288 287 287 287 287 287 287 287 287 287 287 287 287 286 286 286
313 315 316 316 317 318 317 319 320 321 322 321 319 318 317 318 317 314 311 312 310 307 306 306 307 307 306 306 304 303 302 301 301 301 301 301 301 301 301 301 301 301 301 300 300 300 300 299 298 297 296 295 295 295 295 295 294 294 293 292 292 293 293 293 293 293 293 293 292 292 291 291 291 290 289 289 289 288 288 288 288 287 287 287 287 287 287 287 287 287 287 287 286 286 286 286 286
311 312 315 315 317 318 318 318 319 320 322 322 321 319 317 318 318 316 315 314 311 309 306 305 306 307 307 306 305 303 302 302 302 301 301 301 301 301 301 301 301 301 300 300 300 300 300 299 298 296 295 295 295 295 295 294 293 292 292 292 292 292 292 292 292 292 292 292 291 291 291 291 290 290 289 289 288 288 288 288 287 287 287 287 287 287 286 286 287 286 286 286 286 286 286 286 285
311 313 315 315 315 315 316 317 318 318 319 321 322 321 319 317 316 317 317 315 313 310 307 307 307 307 306 306 305 304 303 302 302 302 301 301 301 301 301 301 301 301 300 300 300 300 299 299 297 296 295 294 294 295 294 294 293 292 291 291 292 292 292 292 292 292 291 291 291 291 290 290 290 289 289 288 288 288 288 288 287 287 287 287 287 286 286 286 286 286 286 286 286 286 285 285 285
314 314 315 316 316 315 317 319 318 316 317 319 320 321 320 315 313 314 315 314 314 312 309 309 308 307 306 306 306 304 303 303 302 302 302 301 301 301 301 301 301 300 300 300 300 300 299 298 297 296 295 294 294 294 294 293 292 291 291 291 291 291 291 291 291 291 291 291 290 290 290 289 289 289 288 288 288 288 288 287 287 287 287 287 287 286 286 286 286 286 286 286 286 285 285 285 285
Wind_Speed
3 2 2 2 4 2 2 2 3 2 2 4 3 2 5 4 1 1 3 2 3 7 7 5 4 5 5 4 5 7 9 10 8 6 5 5 6 7 4 2 3 2 2 8 9 12 15 13 12 12 12 11 10 9 8 6 5 4 2 2 1 1 0 2 2 2 3 4 5 6 7 7 7 7 7 7 7 7 6 5 5 5 5 5 6 6 6 6 6 5 5 6 6 7 7 6 5
4 3 4 4 5 1 1 3 2 3 2 4 3 3 5 2 1 2 5 5 5 6 4 4 3 3 4 2 2 2 8 11 10 10 9 7 7 7 4 3 4 2 3 9 9 11 14 12 12 12 12 12 11 9 8 6 5 4 2 2 2 1 2 2 1 1 3 4 5 6 6 6 6 6 6 6 7 7 6 4 5 5 5 4 4 5 6 6 6 6 5 5 6 6 7 6 5
4 4 5 5 3 2 2 4 3 2 2 4 4 4 2 2 3 5 6 6 6 4 2 2 0 1 4 3 0 2 8 10 10 8 9 7 5 5 5 4 3 3 4 9 9 10 13 12 12 12 12 11 11 10 9 7 6 4 3 2 2 2 2 2 1 1 3 5 5 5 6 5 6 6 5 5 6 6 6 5 4 4 4 3 3 3 4 5 5 5 5 5 6 6 7 7 6
4 4 6 4 1 3 3 3 2 2 1 3 4 4 1 3 5 5 6 6 5 3 3 1 1 3 4 2 3 3 7 9 10 7 6 6 5 5 5 5 3 4 4 9 10 9 11 13 12 12 12 11 11 10 9 8 6 4 3 3 2 2 2 1 0 1 3 4 4 4 4 4 5 5 5 5 5 6 6 5 4 3 3 2 1 1 3 4 5 5 5 6 7 7 8 8 8
5 4 5 2 2 2 2 2 2 2 3 3 4 5 3 5 5 5 6 5 4 3 3 2 2 4 4 7 4 4 6 6 8 7 4 5 5 5 5 6 4 4 4 8 10 8 9 13 14 13 11 10 11 10 9 8 7 4 4 3 2 3 2 1 0 1 1 3 3 2 2 2 4 5 4 4 5 6 6 5 4 2 2 1 1 1 2 3 4 5 6 9 10 10 11 11 11
6 5 4 1 2 1 2 2 1 2 5 4 4 6 4 5 5 5 5 5 4 4 4 3 3 2 5 8 8 9 9 4 5 6 3 3 4 4 6 7 5 5 6 7 10 8 7 10 13 13 11 11 10 10 9 8 7 5 5 4 3 4 3 2 1 1 1 1 1 0 1 0 2 3 3 4 5 6 6 6 4 2 1 2 1 2 3 4 5 7 9 12 13 13 13 13 13
4 3 3 1 1 2 4 2 1 4 4 5 5 6 6 6 4 3 5 5 3 3 4 4 3 2 4 6 8 11 9 7 6 5 5 3 4 3 5 7 7 7 7 7 8 8 8 8 11 13 11 11 10 10 9 9 8 7 5 4 4 4 3 3 2 2 1 1 1 0 2 2 2 2 3 5 6 6 6 6 5 2 0 2 3 3 4 5 6 9 11 13 14 13 13 12 12
4 2 1 3 2 2 3 2 3 3 4 4 5 6 6 5 3 1 3 3 2 3 3 4 3 3 5 5 6 8 7 10 9 8 7 4 4 2 4 6 7 8 8 9 8 8 10 8 9 12 11 11 11 10 9 9 9 8 6 4 4 4 3 3 2 2 2 2 2 1 1 2 2 2 2 4 5 5 5 5 4 3 1 1 2 3 4 6 8 10 12 14 14 13 12 11 10
3 1 3 3 1 2 1 3 3 3 5 4 5 6 5 4 2 1 2 4 3 3 4 5 5 3 5 6 8 7 6 9 8 7 6 3 3 2 2 4 6 7 8 9 9 8 9 10 10 12 11 12 11 11 10 9 9 9 8 6 5 5 4 4 2 1 1 2 3 2 1 2 2 2 1 2 3 4 4 3 3 3 2 0 2 3 5 7 9 10 11 13 14 12 11 10 7
2 1 2 2 2 3 2 3 3 4 5 4 4 6 4 3 1 1 1 3 3 2 4 3 4 3 4 6 9 6 6 7 6 5 4 1 1 1 1 2 4 6 7 9 9 8 9 10 11 12 12 12 12 12 11 10 10 10 9 7 6 6 6 5 4 3 1 1 2 3 3 2 2 2 1 2 1 2 3 2 2 1 1 1 3 5 6 7 9 10 12 14 14 12 11 8 6
3 2 2 3 3 3 3 3 4 4 5 4 5 5 4 2 1 1 1 2 2 1 4 2 1 3 2 4 7 5 3 4 4 3 3 2 2 2 3 3 3 4 5 7 8 8 9 10 11 12 12 13 13 13 12 11 10 10 10 9 8 8 7 5 5 5 4 3 3 4 4 3 2 2 3 3 3 2 2 2 2 1 2 3 4 6 7 8 10 12 13 14 15 13 11 8 5
3 2 2 4 3 1 0 3 5 5 6 5 5 5 3 1 2 1 1 2 2 3 4 4 3 2 4 4 7 6 2 4 4 3 3 3 4 4 5 4 4 4 4 5 7 8 9 9 10 12 12 13 14 14 14 13 12 11 11 10 9 9 8 7 6 5 5 5 5 4 5 4 3 3 4 4 4 3 2 1 3 3 3 5 6 7 8 10 11 13 13 14 15 14 11 8 5
3 0 3 3 1 1 1 3 5 6 5 5 5 4 1 1 2 1 2 1 0 1 4 5 3 3 4 2 8 7 5 5 6 6 4 4 4 5 7 7 6 5 4 4 5 7 7 8 9 11 12 13 14 15 16 15 14 13 12 11 10 10 9 8 7 6 6 6 6 6 5 5 5 5 5 5 5 5 4 3 4 4 5 6 7 8 9 11 12 14 14 14 15 15 12 9 5
2 1 3 1 0 1 1 2 5 5 5 6 5 4 2 0 1 2 4 3 2 3 4 3 1 3 4 2 7 5 4 5 8 8 6 7 5 5 6 7 8 7 7 6 5 5 5 7 8 9 10 11 14 15 15 16 16 15 14 13 12 11 10 10 9 8 7 7 7 7 6 5 6 6 6 6 6 6 5 5 5 5 6 7 8 9 10 12 14 15 16 15 15 15 13 11 7
2 1 3 1 1 3 2 1 5 5 4 7 4 3 3 2 1 2 4 4 3 5 4 1 2 3 2 1 1 0 6 8 9 9 8 8 7 7 6 6 8 8 9 8 7 6 5 5 6 7 8 10 12 13 14 15 15 16 16 15 14 12 11 11 10 10 9 9 9 7 7 6 6 7 7 7 7 7 7 7 7 6 6 8 9 10 11 12 15 17 18 17 16 15 13 12 9
1 1 3 2 3 3 3 2 3 5 4 7 5 2 3 5 3 2 2 4 3 2 3 1 2 3 2 3 4 6 10 10 9 7 6 7 7 8 7 7 7 8 9 10 10 9 7 6 6 7 8 9 11 11 11 12 14 15 17 17 15 14 13 12 12 11 10 10 9 8 8 7 7 7 8 8 8 8 8 8 8 7 6 9 10 11 13 13 15 17 18 17 16 15 15 14 12
1 2 3 3 3 3 4 5 3 2 6 7 5 1 3 4 6 2 3 4 6 4 1 1 3 4 3 3 6 9 10 9 7 4 3 4 5 7 9 9 8 8 9 11 12 12 10 9 7 7 7 8 9 10 9 11 13 14 16 17 16 15 15 14 13 11 11 10 9 9 9 8 8 9 9 9 9 9 9 9 10 10 9 10 10 12 14 15 16 17 15 15 15 15 15 14 13
2 2 3 2 2 2 2 3 2 3 5 6 4 1 3 2 3 1 3 5 6 5 3 3 2 3 3 4 7 9 8 7 6 5 2 2 4 7 9 10 10 10 10 11 12 13 13 12 10 9 9 9 9 9 8 9 12 13 14 16 16 16 16 16 14 12 11 11 9 9 9 9 9 10 10 10 9 10 10 10 10 11 11 11 11 12 14 16 16 15 13 13 13 13 14 14 13
2 2 3 0 2 3 3 3 4 2 3 5 3 1 2 3 1 1 4 5 5 5 6 8 4 4 2 6 7 6 5 5 5 4 2 2 5 7 9 10 11 12 12 12 12 13 14 14 13 12 12 11 10 10 9 8 8 11 12 14 15 14 15 15 14 12 11 11 11 11 10 9 9 10 12 11 10 10 10 10 11 12 12 12 13 14 14 14 14 13 13 12 12 12 13 14 13
1 3 3 2 4 4 4 3 4 3 3 2 2 1 3 4 2 3 5 7 7 2 4 6 6 6 3 7 5 3 3 3 3 2 2 2 3 6 8 9 11 12 12 13 13 14 14 15 15 15 14 14 12 11 11 8 6 8 10 12 13 12 13 14 13 12 11 11 12 12 10 10 10 10 12 11 11 11 11 12 13 14 13 13 13 12 12 12 11 12 11 12 12 11 12 14 14
1 3 2 5 4 3 4 3 4 4 2 1 0 0 5 3 3 6 6 9 5 4 6 2 2 2 4 6 3 1 1 1 1 2 2 2 1 2 4 5 7 9 10 11 13 14 15 16 16 17 16 16 15 13 12 9 6 6 8 10 12 11 12 14 13 13 13 12 12 12 11 12 11 10 11 11 11 11 11 11 12 14 14 13 11 10 9 10 10 11 11 11 10 9 12 15 14
1 1 4 5 2 1 5 3 2 3 1 1 2 3 3 2 5 7 7 7 1 4 1 4 5 6 6 4 2 1 0 1 1 0 1 2 2 2 2 3 4 6 7 9 10 12 13 15 16 17 18 18 17 15 14 12 8 6 6 8 10 10 10 13 14 13 12 10 11 13 13 13 11 10 10 10 10 10 10 10 10 11 12 11 11 10 9 9 10 11 11 9 8 10 13 15 15
2 2 3 2 0 1 4 3 2 1 2 3 4 3 2 5 7 6 5 5 1 2 4 5 6 6 4 2 2 1 2 3 3 2 2 3 4 4 5 5 5 5 6 7 9 10 11 12 14 15 17 19 19 18 15 12 9 6 7 9 9 8 8 11 11 9 9 10 11 13 14 14 12 11 10 9 9 10 9 9 10 10 11 11 12 11 10 10 10 11 11 9 9 11 12 14 15
4 1 4 2 0 1 2 3 3 4 5 5 3 4 6 9 6 4 4 3 4 5 3 2 3 3 2 1 1 2 3 4 4 3 4 4 5 5 5 5 6 6 6 7 7 9 10 10 11 11 13 15 17 17 14 11 8 6 8 10 10 10 10 13 12 10 10 11 12 13 15 15 13 12 12 10 10 11 10 9 9 10 11 11 11 9 9 10 10 10 11 11 11 10 10 14 15
4 1 4 2 2 3 3 3 5 6 8 6 5 7 10 8 4 4 4 3 6 5 1 2 2 2 1 2 3 4 5 5 4 4 5 5 6 6 6 5 5 6 6 5 6 6 7 8 8 8 9 10 12 12 10 8 7 7 10 12 11 12 13 14 14 13 13 12 11 12 14 15 14 12 11 11 12 13 12 10 9 9 8 8 7 7 8 9 9 10 10 11 11 11 12 14 13
1 1 2 2 3 5 5 6 8 8 8 6 7 10 9 5 4 4 5 5 6 4 3 2 2 1 2 4 5 5 5 5 4 4 4 5 6 7 6 5 4 5 5 5 4 4 5 5 5 6 8 10 8 8 9 9 11 12 14 15 13 13 14 13 14 13 13 13 11 10 11 13 15 13 12 12 12 12 13 13 12 10 7 7 8 8 9 8 9 10 10 11 11 12 13 13 11
2 1 3 6 7 6 6 8 8 6 7 8 8 9 5 6 6 4 6 7 6 4 3 3 3 4 6 6 6 5 5 4 3 3 3 4 4 5 5 5 4 4 4 4 3 3 3 3 3 5 8 11 10 11 13 13 14 14 14 15 12 13 13 13 14 12 9 10 9 9 10 12 14 14 13 12 12 11 12 12 12 11 8 8 10 10 10 9 10 11 12 13 11 11 11 11 10
1 3 6 9 9 8 9 8 7 6 5 7 9 6 4 7 6 3 8 9 7 5 4 3 5 6 6 6 5 4 3 2 2 1 2 2 3 4 4 3 3 3 3 3 2 2 2 2 4 7 8 10 11 14 14 13 14 13 13 13 11 11 12 11 12 11 10 9 9 8 10 10 10 12 14 14 13 14 13 11 9 9 8 8 9 9 10 10 11 12 13 14 12 10 10 11 11
2 4 6 7 8 10 10 7 5 5 3 5 7 5 6 10 6 6 9 9 7 6 4 4 4 5 5 5 4 3 3 2 1 1 2 3 3 3 3 3 3 3 3 3 2 3 3 3 5 8 9 9 9 13 14 14 14 13 12 13 11 10 10 8 8 10 10 10 8 7 8 8 8 9 11 10 10 11 12 12 10 8 7 7 9 10 10 9 10 11 13 13 10 9 10 12 14
4 4 5 6 8 7 8 6 5 5 4 7 6 5 6 11 9 9 9 9 8 7 6 5 4 5 6 5 4 4 4 3 3 3 4 4 5 4 4 4 4 4 5 5 5 5 5 5 6 9 11 10 10 11 14 15 14 13 13 13 11 10 10 8 8 7 6 5 4 4 4 5 5 6 7 6 6 7 10 12 11 11 10 9 10 10 9 9 10 11 12 11 10 11 12 13 15
4 4 4 5 6 3 8 7 6 5 5 9 7 6 3 8 10 9 9 9 9 8 7 6 5 5 7 7 5 5 5 5 4 5 5 5 6 5 4 4 5 5 7 7 8 9 8 8 8 9 11 12 11 11 12 14 14 12 11 11 10 9 10 9 6 3 2 1 1 2 2 2 2 2 3 3 5 6 8 8 9 11 11 10 10 10 9 10 12 13 13 12 12 13 13 14 14
4 4 5 5 4 2 7 7 5 3 4 9 8 5 2 8 10 8 8 10 10 9 7 6 5 6 7 6 5 5 6 6 6 6 7 7 6 5 5 5 6 7 8 9 10 11 10 9 9 9 9 10 10 10 10 10 10 10 9 9 9 7 7 5 3 3 3 2 2 1 2 2 2 2 2 2 3 5 7 7 7 8 9 9 10 10 11 11 13 14 13 13 12 12 13 15 16
5 5 6 5 5 4 4 6 4 2 4 9 10 6 3 6 10 9 8 9 10 9 8 7 6 7 7 6 6 6 5 6 7 7 7 7 7 6 5 6 8 9 10 11 12 13 12 11 11 11 10 10 10 10 10 9 8 8 8 7 6 5 5 6 6 4 3 2 2 1 2 2 1 1 2 3 4 4 3 3 3 4 5 6 8 9 9 10 11 12 12 11 12 12 14 15 16
5 5 5 7 7 6 4 3 5 5 4 7 9 9 8 5 12 10 10 9 9 10 9 8 7 6 7 7 6 6 5 6 8 9 8 8 7 6 5 7 9 10 11 12 14 14 13 13 13 14 12 11 10 10 10 9 8 8 8 7 6 6 6 7 7 4 3 3 2 2 2 1 1 1 1 2 2 2 1 1 1 2 3 4 5 6 6 7 8 9 10 10 11 12 12 13 15
6 5 4 6 6 7 8 3 5 6 6 7 8 10 11 6 12 11 11 11 10 10 8 8 7 6 6 6 5 6 6 7 10 10 10 9 9 8 8 9 10 11 12 13 14 15 15 15 16 16 15 13 11 10 9 8 8 8 8 8 7 7 8 8 6 4 4 4 4 4 3 1 1 2 2 2 2 2 1 1 2 2 3 4 5 6 6 6 7 8 8 9 9 10 11 12 13
7 6 5 7 6 7 7 1 4 3 5 9 11 11 13 9 10 12 11 11 10 9 8 7 7 6 6 5 5 6 5 7 12 12 11 11 10 10 10 11 11 11 12 14 14 15 15 15 15 17 17 16 13 11 11 10 9 9 9 9 9 9 9 8 6 5 5 4 4 4 3 2 1 2 2 2 2 2 2 2 3 3 4 5 5 6 6 7 7 8 9 9 10 11 13 13 14
5 6 7 8 8 9 6 2 5 2 4 9 11 12 14 13 8 11 12 11 10 10 9 8 8 7 6 5 5 5 5 9 12 12 12 12 12 11 11 13 13 12 13 15 15 15 15 15 15 15 16 17 16 14 13 12 10 9 9 9 9 10 8 7 6 5 5 4 5 4 3 4 3 2 2 2 2 2 2 3 3 3 3 3 4 5 6 7 8 9 9 10 10 11 13 14 15
7 7 8 8 8 9 6 3 5 4 3 8 11 13 13 15 11 10 13 10 10 12 11 10 9 7 6 6 6 6 7 11 11 12 12 12 13 13 13 14 16 15 16 17 16 15 15 15 15 14 14 14 14 13 12 12 11 10 10 9 10 11 10 8 8 9 8 8 8 8 8 8 8 8 8 8 8 8 8 8 8 8 8 8 9 9 9 9 9 9 9 9 10 12 13 14 15
8 6 7 7 6 8 6 4 5 3 3 6 9 11 11 14 11 10 13 11 10 10 9 8 9 9 8 7 7 7 8 9 11 12 13 13 14 15 15 16 17 17 18 18 17 16 15 14 14 14 14 13 13 13 13 14 14 13 12 13 13 13 13 12 12 13 12 12 12 11 12 12 12 12 13 13 13 13 12 13 13 13 12 12 12 11 11 11 12 12 12 13 13 14 16 17 18
8 6 6 7 6 6 6 3 4 4 5 5 7 8 10 12 8 9 11 10 8 7 7 6 8 8 8 9 9 8 9 10 12 13 14 15 16 17 17 17 18 18 19 18 17 16 15 15 16 16 16 15 15 15 16 16 16 15 14 15 14 15 15 14 15 15 14 13 13 13 13 13 13 13 13 13 13 13 13 13 14 13 13 12 12 12 12 13 14 14 15 15 15 16 17 19 19
9 9 8 8 7 7 7 2 0 4 7 6 6 8 9 12 13 9 7 6 6 7 8 8 10 10 9 11 12 10 10 12 14 15 15 17 18 18 19 19 19 19 20 19 19 18 18 18 19 19 19 18 19 18 17 17 16 15 14 14 13 14 14 14 14 15 14 13 13 13 13 13 13 12 12 12 13 13 13 13 13 13 13 13 13 14 14 14 15 15 16 16 17 17 17 18 19
8 10 12 12 11 10 10 6 3 6 7 5 4 8 6 5 11 9 7 6 7 9 11 12 13 13 11 13 14 14 15 14 15 17 18 19 20 20 20 21 21 21 22 21 21 21 21 21 20 20 20 19 18 18 17 16 14 13 12 11 11 12 13 13 13 13 13 13 13 13 13 13 12 12 12 12 12 12 12 13 13 13 14 14 15 15 15 15 16 16 17 17 17 18 17 17 18
7 4 6 10 11 10 10 8 3 5 6 2 3 7 5 3 5 6 7 7 9 9 10 13 14 14 13 14 14 17 19 19 18 19 21 22 22 22 23 24 24 24 24 24 24 23 23 22 21 20 19 18 17 16 15 13 12 11 10 10 10 11 11 13 13 13 13 13 12 12 12 12 11 11 11 11 12 12 12 13 13 13 14 14 15 15 15 16 17 17 18 18 18 18 18 18 18
5 2 0 4 7 8 9 8 6 6 6 2 5 6 7 7 4 6 7 7 8 9 9 11 13 13 14 14 14 16 19 21 22 23 24 24 25 25 25 26 26 25 25 25 24 23 22 21 19 18 17 16 15 14 13 11 10 10 9 9 10 11 11 12 13 13 13 12 11 11 11 11 11 11 11 12 12 13 13 14 14 15 15 15 16 16 17 17 17 17 18 18 18 19 19 19 19
2 3 2 2 2 5 6 6 6 6 6 5 7 6 5 8 4 6 7 7 8 10 11 12 13 15 15 15 15 16 19 22 24 25 27 28 28 28 27 27 26 26 25 24 23 22 21 19 18 17 16 15 14 13 12 11 10 9 9 8 8 10 11 12 13 12 12 11 10 10 10 10 10 10 11 11 12 13 13 14 15 15 15 16 17 17 17 18 18 18 19 19 19 19 19 18 18
3 6 4 4 2 1 3 5 5 5 7 8 8 8 6 8 4 6 5 5 9 9 10 12 15 17 17 17 17 17 21 24 25 27 29 30 30 29 28 27 26 25 24 23 22 20 19 18 17 16 15 14 14 13 11 11 10 9 8 7 7 9 11 11 12 11 11 9 9 9 9 9 9 10 10 11 12 12 13 14 14 15 16 16 17 17 18 18 19 19 19 19 19 19 18 18 18
8 7 4 4 3 2 2 4 3 5 9 9 10 13 10 6 4 6 5 4 7 8 10 12 16 19 19 19 19 20 24 28 29 30 31 31 31 30 28 27 25 24 23 22 20 19 18 17 16 14 13 13 13 13 11 10 9 8 8 7 8 9 10 10 10 10 10 8 8 8 8 8 9 9 10 11 12 13 13 14 15 16 16 17 18 18 18 19 19 19 19 18 18 18 18 17 17
6 5 4 4 3 3 3 4 4 7 8 4 5 9 12 8 4 3 4 4 5 8 11 14 17 21 22 21 21 22 27 31 31 32 32 32 31 30 29 27 25 24 22 21 20 18 17 16 15 13 12 12 12 12 11 10 9 8 8 9 9 9 10 9 9 9 8 7 7 7 8 8 9 10 11 12 13 15 15 16 16 17 18 18 19 19 19 19 19 18 18 18 17 17 17 16 16
5 5 6 5 4 4 5 5 6 7 5 2 2 3 8 10 8 6 3 6 6 6 9 16 21 23 25 24 22 24 30 33 33 33 33 32 31 30 29 27 26 24 22 21 19 18 16 15 14 12 12 12 12 12 11 11 10 10 9 9 9 9 9 8 7 7 6 6 6 6 7 8 9 11 12 13 15 16 16 17 18 18 19 20 20 20 20 20 19 19 18 18 18 18 17 17 17
9 8 8 7 6 6 7 6 6 6 2 2 2 2 4 6 8 10 6 5 6 5 6 17 25 26 26 25 24 27 32 34 34 34 34 33 32 31 30 28 26 24 23 21 19 18 16 15 14 12 12 12 12 12 12 12 11 10 10 9 9 8 8 7 6 5 5 5 5 5 6 7 9 11 13 14 15 16 16 17 18 18 19 19 19 20 20 19 19 19 19 19 19 19 19 19 19
10 8 8 8 7 7 6 5 5 4 1 2 2 3 4 4 1 1 2 5 6 5 5 12 21 24 24 24 25 30 34 35 35 35 35 34 34 32 30 29 27 25 23 21 19 18 16 15 14 13 12 13 13 13 13 12 11 10 10 9 9 8 7 6 5 5 4 4 3 4 6 7 10 11 12 13 14 14 15 15 16 17 17 17 17 17 18 18 18 18 19 19 19 19 20 20 20
7 6 8 9 6 5 4 1 1 1 1 2 5 4 4 3 3 4 5 4 5 5 5 11 18 22 23 23 25 32 36 37 37 37 36 36 35 33 31 29 27 25 23 22 20 18 16 15 14 13 13 13 14 14 13 13 12 11 11 10 9 9 7 6 5 4 3 1 2 3 6 7 9 10 10 11 12 13 13 14 14 15 15 15 15 16 16 16 17 17 17 18 19 19 20 21 21
6 6 8 4 1 3 2 1 2 1 6 4 6 5 4 2 3 6 7 5 6 7 7 12 18 21 23 22 25 34 38 39 40 39 38 38 36 34 32 30 28 26 24 22 20 18 17 15 14 14 14 15 15 15 14 13 12 12 12 11 10 9 7 6 4 2 1 1 2 3 5 6 7 8 9 10 11 12 13 13 14 14 14 15 15 15 16 16 16 17 17 18 18 19 20 21 21
5 6 6 4 3 3 2 4 2 3 8 5 6 9 7 6 4 5 7 7 8 8 9 12 17 21 22 22 26 35 40 39 40 40 39 39 37 35 33 30 28 26 24 23 21 19 17 16 15 15 15 17 16 15 14 14 14 14 13 12 11 9 7 5 4 3 3 2 2 3 4 6 7 8 10 11 12 12 13 14 15 15 16 16 16 17 17 17 17 18 18 19 19 19 20 20 21
0 2 4 4 3 5 5 5 5 6 8 5 6 10 9 8 6 5 9 11 10 11 11 12 16 20 22 22 26 34 38 39 41 42 41 40 39 36 34 32 29 27 25 23 22 20 19 17 17 17 17 17 16 16 15 16 16 15 14 13 11 9 7 6 6 5 4 3 3 4 5 6 8 9 11 12 13 14 15 16 17 17 18 18 19 19 19 19 19 19 19 19 19 20 20 21 22
1 2 4 3 2 4 5 5 4 5 7 6 5 6 6 8 9 10 13 13 12 14 12 12 16 21 25 25 27 35 42 44 44 44 43 43 40 38 35 33 31 29 27 25 24 22 20 20 19 19 19 18 18 17 17 18 17 16 14 13 11 10 9 8 7 6 5 4 4 4 5 7 9 11 12 13 15 16 17 18 19 19 20 20 20 20 20 20 20 19 19 19 20 20 21 22 23
6 6 8 6 3 1 2 5 5 4 6 6 7 6 3 3 5 9 13 12 12 15 13 12 16 22 25 26 31 40 46 47 47 47 46 44 42 39 36 34 31 30 29 27 25 24 23 22 22 21 21 20 19 19 19 19 18 16 15 13 12 11 10 9 9 7 6 5 4 5 7 8 10 12 13 14 16 17 18 18 19 20 20 21 21 21 21 21 21 21 21 21 21 22 23 24 25
9 9 10 10 8 5 4 6 6 4 4 4 5 8 3 3 1 0 4 6 9 14 14 13 17 23 25 26 33 43 48 48 50 50 48 46 43 40 38 36 34 33 31 29 27 26 25 24 24 23 22 21 21 21 21 20 18 17 16 15 13 13 12 11 9 8 6 5 5 6 7 9 10 12 13 15 16 17 18 18 19 20 21 22 23 23 23 23 23 22 22 22 23 23 24 25 26
Wind_Direction
26 40 85 92 103 107 151 247 240 189 265 98 91 130 86 49 87 142 102 82 109 63 29 24 10 346 333 341 17 47 42 29 26 27 74 61 42 41 39 27 8 360 186 179 194 191 188 197 192 186 181 183 184 185 191 195 195 197 202 208 229 208 350 19 35 67 90 106 117 122 125 122 118 108 97 86 72 66 60 64 63 50 40 31 25 23 20 36 52 47 41 32 31 33 33 32 30
49 76 100 99 114 114 200 236 254 144 180 114 82 62 96 146 175 66 59 47 57 48 22 23 9 351 331 309 305 81 62 49 51 65 80 60 48 34 49 62 23 49 173 175 186 191 186 199 199 190 185 186 189 191 192 198 207 214 234 252 286 291 307 341 17 97 112 122 133 137 137 130 120 103 91 80 65 61 60 68 68 56 41 34 32 23 16 34 52 48 39 27 21 18 16 15 16
55 89 109 102 121 272 249 232 260 178 157 109 97 82 117 156 82 61 49 46 51 29 16 13 1 5 288 218 22 42 80 65 52 73 78 62 66 32 62 86 46 82 165 173 180 186 182 200 206 192 185 189 194 197 199 203 212 225 245 254 278 295 302 318 355 139 130 132 141 147 148 137 118 102 92 75 61 58 59 69 73 64 45 37 37 24 14 25 36 38 38 24 11 1 352 346 343
55 96 114 98 218 227 235 238 276 270 123 105 112 108 115 73 73 67 61 57 52 18 16 343 119 47 327 62 60 46 80 71 50 59 74 53 73 67 83 99 77 97 154 173 177 180 185 201 209 198 185 190 197 200 205 208 214 226 238 245 259 279 298 312 286 150 138 141 147 157 159 144 118 109 98 75 62 59 58 66 74 70 61 68 61 3 355 11 18 27 30 10 354 340 330 326 321
67 93 114 89 261 223 275 266 279 301 51 73 115 115 108 80 79 76 76 76 55 19 6 328 80 85 45 40 18 15 35 58 50 36 63 46 59 81 97 109 100 112 143 173 176 177 197 205 207 202 189 189 197 202 207 212 217 226 232 237 248 256 283 315 300 203 166 141 147 167 170 155 124 115 103 75 60 55 51 58 69 78 94 130 130 298 322 350 357 3 357 344 336 326 320 315 312
71 81 103 73 296 288 270 222 207 92 41 14 106 115 105 83 74 84 97 99 73 42 20 344 25 92 103 65 48 37 21 41 35 10 61 69 70 92 106 116 113 120 141 168 174 183 211 216 209 199 192 193 198 207 210 216 220 227 231 229 236 243 273 308 337 307 275 123 116 324 307 289 115 110 92 68 54 48 41 47 59 82 134 177 223 266 302 322 329 335 333 330 328 322 316 311 308
75 83 115 172 169 242 261 183 98 104 53 11 91 108 99 87 69 104 128 122 119 83 37 24 5 311 119 107 76 50 36 63 53 35 62 74 86 97 114 120 123 135 150 163 172 193 215 224 215 199 195 198 203 213 215 221 222 226 228 226 232 234 255 287 332 350 325 106 119 318 316 329 37 72 72 58 47 43 38 44 52 54 184 210 240 271 307 320 322 327 329 329 327 324 319 314 310
78 69 236 249 174 225 274 115 72 81 84 52 79 82 78 79 58 99 121 99 95 88 49 51 341 296 107 119 101 65 47 63 57 52 55 71 86 86 116 120 127 142 157 165 174 202 214 214 213 205 198 199 206 214 216 220 222 227 226 227 233 226 236 259 309 354 44 116 157 213 291 321 2 17 52 44 36 41 42 48 52 49 28 222 244 279 314 320 320 323 328 331 330 329 328 326 320
37 339 255 252 216 202 229 118 93 85 108 109 99 86 77 74 46 358 98 96 83 78 51 39 337 326 118 122 107 87 43 43 39 44 45 67 82 82 119 126 126 139 159 169 179 201 208 199 206 209 202 201 207 212 214 217 221 226 225 229 232 224 228 238 256 288 43 133 177 202 240 283 334 347 357 359 18 39 39 44 49 55 61 94 283 300 314 313 314 318 325 331 333 333 336 336 329
302 272 271 264 241 191 189 147 119 114 114 119 108 96 93 81 65 347 43 100 85 86 64 25 340 29 139 128 107 99 49 32 9 14 15 29 105 150 158 161 138 138 155 171 185 196 197 194 202 207 207 204 204 210 213 216 218 224 227 229 232 226 226 233 239 242 249 196 204 220 236 259 309 329 290 286 317 21 13 23 32 42 33 291 294 298 299 301 305 312 319 328 333 335 338 338 328
239 211 285 266 227 204 199 160 132 128 124 136 121 97 92 79 189 204 275 97 90 152 76 338 321 57 205 131 104 124 82 30 345 330 327 312 270 233 218 203 184 157 151 168 185 192 192 193 199 203 208 206 204 207 211 217 216 220 227 229 231 229 228 232 238 241 237 230 229 233 242 255 284 283 264 270 274 318 346 6 358 335 302 284 290 294 295 298 301 308 316 326 332 335 338 335 322
257 168 222 247 235 230 132 145 138 134 142 164 144 106 93 113 242 220 260 93 104 173 86 5 356 7 250 155 124 152 217 327 346 318 304 290 278 256 240 229 222 199 172 169 177 188 191 192 197 201 205 207 207 206 208 214 215 218 223 226 231 231 230 229 229 234 235 235 234 237 245 250 252 240 247 262 266 284 301 320 324 320 305 295 295 297 298 301 303 309 318 327 332 333 336 331 314
296 117 237 251 315 324 77 133 139 146 163 169 130 101 118 217 254 348 330 299 208 182 68 22 356 298 273 148 138 160 240 306 334 319 297 272 272 270 252 238 233 227 211 191 183 186 186 188 194 201 204 205 208 208 207 208 212 217 219 222 226 230 233 232 232 234 237 242 238 234 235 244 247 240 247 256 261 274 285 287 293 303 303 303 304 301 301 304 308 315 323 331 332 330 331 328 307
335 346 275 253 18 251 156 138 148 178 173 135 101 98 151 198 348 345 314 292 77 56 27 20 326 274 266 204 150 154 253 293 313 306 289 270 265 270 260 246 238 234 229 219 212 197 189 188 188 198 203 205 208 210 210 207 209 214 217 219 221 224 228 232 237 242 248 253 248 237 229 238 244 243 248 255 264 271 284 288 280 289 301 306 308 305 303 308 314 320 325 330 331 329 328 327 310
34 311 275 224 196 195 184 172 170 209 167 127 109 104 161 137 40 311 319 324 43 53 3 7 224 284 300 293 138 324 293 294 301 297 282 269 261 266 265 254 242 234 233 226 226 220 209 200 191 195 197 205 209 211 212 209 210 213 216 219 220 221 223 226 230 238 247 254 256 247 233 233 240 243 248 254 263 271 280 283 279 279 296 308 307 306 305 310 317 321 324 325 327 329 330 330 321
70 250 252 212 206 198 183 182 192 218 147 123 116 110 199 160 151 267 309 314 315 344 354 31 226 288 336 336 320 306 301 301 305 300 276 262 262 268 265 258 248 238 235 229 230 229 227 222 212 208 201 204 207 210 213 210 212 215 215 216 220 223 224 226 226 232 239 248 253 250 243 241 243 244 248 253 259 270 275 278 282 278 290 305 302 302 303 309 317 320 325 325 324 328 333 335 330
137 233 244 213 202 193 172 178 188 165 122 123 126 137 245 171 157 214 287 271 269 284 55 135 228 238 254 280 297 300 302 309 322 329 291 262 259 263 263 258 252 244 239 234 232 231 234 234 231 230 223 215 209 207 207 208 213 216 216 216 220 224 227 229 233 235 238 246 248 243 243 243 247 249 248 248 252 262 267 273 280 280 291 297 294 297 302 311 319 322 327 328 324 326 332 335 333
253 241 239 222 185 149 142 166 130 107 125 129 126 87 287 244 155 158 286 227 231 262 143 141 223 207 238 286 299 301 309 329 349 354 340 273 245 247 255 252 251 250 246 241 237 236 236 237 238 240 239 234 225 215 207 207 211 213 215 218 221 225 227 230 236 240 245 251 250 244 243 241 243 250 252 248 252 258 261 269 275 277 283 283 284 291 300 312 319 324 327 327 327 325 329 334 335
296 282 243 204 79 87 68 96 95 85 122 125 122 82 288 292 13 1 282 225 225 252 156 144 129 116 304 305 303 306 327 352 9 5 1 268 247 244 248 247 249 250 250 247 241 240 239 239 240 241 242 242 239 228 218 208 206 209 210 212 215 222 225 227 233 239 248 252 251 249 246 245 241 248 254 254 258 263 265 269 271 274 276 275 279 286 297 308 315 323 324 322 322 322 328 336 337
330 287 254 95 87 95 89 100 90 67 86 123 141 93 284 282 312 302 299 284 259 253 117 147 121 88 337 305 296 303 344 14 51 73 102 162 219 235 244 244 247 248 250 250 245 242 240 241 241 242 243 243 242 236 228 214 198 203 203 203 206 215 223 223 223 229 240 246 249 249 244 242 241 245 254 259 263 267 271 270 270 274 276 277 278 284 296 303 313 323 326 327 323 318 331 337 336
314 303 354 91 115 134 125 120 89 77 62 337 149 260 269 251 290 294 297 289 256 93 62 84 79 46 293 288 271 253 8 39 78 94 93 102 150 215 235 241 245 245 245 246 246 243 241 241 241 242 243 243 243 240 234 221 203 199 194 196 198 205 219 221 219 222 228 233 242 243 237 238 240 242 250 259 261 262 268 271 273 275 277 277 274 281 291 295 311 323 325 333 329 320 331 334 333
267 27 47 90 129 145 129 127 89 85 35 275 232 253 266 240 274 275 269 283 292 83 349 257 270 267 261 264 224 215 215 248 262 251 327 334 334 320 286 266 252 245 244 243 242 242 242 242 242 242 241 240 240 238 235 224 210 194 187 196 196 198 213 219 221 224 222 224 236 236 233 234 233 232 240 251 254 255 258 263 267 270 275 276 271 275 278 281 299 310 310 321 319 310 323 329 332
279 119 97 102 52 23 124 147 181 164 244 236 242 264 294 268 261 250 253 278 297 304 278 251 252 242 235 225 201 239 237 243 245 246 282 300 314 313 305 298 282 266 255 250 247 246 246 247 246 244 241 237 235 235 234 226 208 184 190 196 190 194 209 215 217 216 211 220 231 231 232 232 228 226 231 238 243 249 253 254 258 264 271 273 273 272 269 274 290 298 291 293 299 301 313 321 327
287 168 138 139 104 266 147 164 202 210 235 241 261 281 265 257 252 219 217 242 252 272 285 225 216 200 205 231 255 283 267 265 266 276 297 306 313 309 298 294 290 285 272 262 257 254 254 254 253 248 241 232 229 229 227 221 201 185 193 187 184 192 202 212 214 210 210 220 227 226 229 235 238 237 238 237 235 239 245 249 251 258 263 264 268 268 270 276 285 291 283 284 295 299 307 315 319
262 297 136 159 219 235 220 208 225 224 236 244 247 258 254 246 241 216 191 200 238 243 221 174 152 151 207 265 270 262 260 265 272 284 294 301 308 307 302 293 287 285 282 273 259 254 255 255 253 244 229 213 215 218 213 201 184 186 186 180 187 194 198 209 215 221 228 232 235 233 230 234 242 249 252 248 247 242 235 238 239 244 251 250 258 267 276 279 277 281 280 281 291 293 297 306 313
37 23 137 219 232 232 236 242 242 230 232 226 226 245 243 218 213 211 172 191 221 209 203 190 156 206 245 260 260 250 248 246 246 259 269 282 287 292 299 302 294 278 273 271 258 248 245 247 243 229 209 194 190 189 190 187 183 191 189 184 191 196 202 208 210 222 231 232 240 249 242 237 240 252 262 257 259 251 238 243 243 241 248 247 250 256 260 266 267 267 266 267 277 284 287 296 305
45 338 275 261 254 244 233 243 247 237 233 216 227 250 215 174 210 209 160 193 209 179 201 213 209 232 240 244 244 240 238 234 233 232 241 251 256 268 280 287 291 274 258 251 244 231 221 224 197 185 184 184 181 180 190 191 188 194 188 185 194 201 207 210 211 219 225 228 243 261 259 249 242 248 259 259 261 261 256 258 247 239 247 249 247 250 255 262 264 263 264 264 267 272 276 288 296
0 310 285 255 244 242 226 234 240 229 232 211 224 248 168 171 220 175 148 185 187 159 182 211 229 241 246 248 241 237 233 230 243 241 243 236 231 239 243 247 250 240 232 221 215 195 181 175 163 158 165 180 183 183 187 183 183 191 183 182 193 200 207 212 220 230 239 244 254 262 259 257 253 255 263 261 256 258 266 271 258 248 252 255 252 255 262 269 272 271 271 271 269 265 271 287 292
307 286 288 268 248 240 215 209 214 213 209 176 202 234 200 197 197 136 148 176 169 169 191 195 225 248 255 261 258 255 252 248 251 245 240 232 232 227 210 192 180 183 174 171 164 137 126 130 142 146 157 177 179 177 179 175 180 189 188 190 193 196 206 218 230 240 249 253 257 259 256 257 259 260 263 259 252 254 261 267 276 284 283 270 260 259 266 276 279 278 277 275 272 273 276 280 283
279 247 268 290 269 235 180 165 179 199 175 161 194 256 218 188 160 136 153 171 171 187 201 194 216 242 250 250 249 258 254 250 247 233 228 223 225 215 195 172 152 147 140 133 120 108 107 119 131 138 150 165 169 171 173 172 179 188 194 198 197 201 212 224 236 242 245 247 258 272 274 273 264 252 250 254 258 260 261 263 274 288 289 275 264 267 278 283 283 288 291 285 277 280 282 281 282
260 248 234 256 270 204 142 154 181 187 162 169 207 271 233 160 145 147 164 174 182 198 201 197 209 227 245 243 236 248 247 245 241 231 223 214 214 203 185 160 140 133 126 118 110 105 107 119 125 131 144 158 169 174 173 173 179 187 194 195 194 203 213 222 230 220 191 193 319 332 336 342 322 281 261 270 278 276 273 271 276 285 287 281 280 289 295 291 288 296 301 296 286 283 287 291 292
229 252 247 225 239 182 146 159 190 194 156 177 208 266 235 153 152 156 169 182 191 209 210 197 207 219 234 237 229 236 238 238 229 222 216 204 203 193 174 150 134 126 120 115 111 107 108 116 119 122 131 141 153 162 169 175 179 182 187 186 187 192 196 191 163 141 128 105 72 22 16 40 47 44 36 4 331 301 285 282 289 296 296 293 294 297 296 290 287 290 293 295 291 284 287 292 293
215 230 262 246 238 235 170 156 187 205 161 187 207 255 290 148 155 160 168 183 193 211 215 199 209 217 219 224 225 227 229 234 225 216 209 198 195 187 166 143 134 128 124 119 117 117 117 118 117 119 124 125 130 136 146 158 158 158 164 164 166 165 158 142 133 136 130 111 118 129 78 71 81 71 47 34 15 347 314 296 302 308 300 296 294 291 289 287 285 284 288 294 296 293 292 290 291
222 212 249 261 253 252 239 157 156 178 197 218 215 241 271 159 152 168 175 181 194 209 212 204 207 209 216 223 223 219 210 220 225 215 201 194 189 180 163 143 137 131 127 123 123 125 124 123 122 121 120 119 120 122 128 138 140 143 149 145 142 142 137 133 132 132 130 128 146 159 140 87 17 350 349 351 351 353 354 329 334 334 322 317 308 302 297 294 295 295 298 301 302 300 296 293 293
270 247 251 266 249 240 254 228 152 177 206 242 236 240 257 201 157 171 178 181 199 210 205 206 206 203 216 218 214 215 204 216 226 212 196 193 186 178 164 144 138 134 128 127 125 125 125 125 125 122 118 114 113 115 117 121 125 131 133 128 127 125 121 125 126 120 117 111 118 127 127 120 17 356 352 342 327 322 324 328 334 330 325 322 315 312 310 306 304 304 303 303 301 299 297 295 293
297 289 283 283 265 253 262 177 126 187 228 248 251 253 259 239 177 170 177 182 198 208 197 202 209 206 211 207 211 210 197 220 223 207 194 191 183 175 164 146 139 137 133 133 132 130 129 127 128 128 126 123 120 118 115 113 116 122 124 127 131 127 123 125 119 115 118 110 110 115 113 101 56 14 359 350 334 325 326 330 325 318 310 303 301 300 303 306 305 306 306 308 310 306 304 302 300
296 286 275 272 267 269 270 131 117 146 250 255 256 259 261 260 225 175 171 179 194 204 199 203 205 202 206 203 206 194 196 220 216 201 193 185 177 171 162 147 140 136 132 133 134 132 131 129 130 132 132 130 131 130 126 125 128 129 133 142 142 135 132 128 118 118 120 107 100 101 98 83 67 55 46 33 21 21 22 21 12 3 354 343 340 336 334 332 328 326 324 325 328 326 323 323 322
263 268 266 261 256 264 266 140 126 144 242 263 263 263 258 262 255 179 164 182 199 204 203 205 202 193 197 197 192 188 206 216 202 190 187 177 172 167 158 149 144 138 132 131 132 131 129 129 129 128 126 125 127 128 126 126 126 125 131 135 132 129 127 124 116 109 102 95 91 89 86 80 76 75 72 68 66 66 64 59 55 48 44 41 37 32 25 19 13 10 7 3 1 358 356 354 351
254 252 254 259 255 265 257 153 137 161 238 270 272 270 263 264 255 178 174 195 193 194 194 191 191 188 192 190 184 184 192 196 187 183 179 170 168 165 158 152 147 141 137 135 135 134 130 127 125 121 117 116 115 117 117 115 115 117 120 119 118 118 118 115 108 101 95 93 91 87 83 78 75 73 70 68 66 64 62 59 55 51 48 46 43 40 35 31 28 27 26 25 23 18 14 9 7
242 237 244 252 246 260 258 173 140 183 231 278 292 281 271 267 244 172 179 192 168 167 175 171 180 183 186 184 178 176 173 174 177 177 173 168 166 164 159 153 149 145 142 142 141 139 134 128 125 123 121 120 118 116 115 113 113 115 115 113 115 115 111 108 104 99 95 93 90 85 80 75 71 68 65 61 59 56 53 52 50 47 44 41 37 33 28 27 25 23 24 24 23 22 19 13 11
231 227 234 250 249 248 256 261 82 235 233 240 270 281 271 255 234 197 161 168 171 174 180 184 188 183 181 182 176 168 166 170 174 173 170 168 164 161 159 153 150 148 146 146 144 140 136 131 128 127 126 124 122 120 117 115 115 116 116 116 117 114 110 107 105 102 97 93 88 83 78 72 67 63 59 55 52 50 47 45 43 40 38 35 32 29 27 25 22 21 20 19 19 20 21 16 12
243 224 223 242 260 262 266 282 315 285 261 197 214 271 278 245 228 201 149 173 194 182 188 193 188 186 185 184 179 172 170 168 172 173 168 165 161 158 155 153 151 149 147 144 141 137 134 132 129 128 126 124 123 121 119 119 121 121 121 122 120 119 119 115 109 103 98 93 85 80 75 70 65 59 56 53 49 47 44 41 38 34 31 29 28 26 24 21 19 17 16 15 15 15 15 12 12
260 235 213 232 258 266 266 269 254 274 285 146 183 260 278 275 227 168 148 194 195 183 198 194 184 184 182 179 178 177 175 170 170 171 166 160 158 157 155 154 152 149 146 142 139 137 134 132 130 128 126 124 121 120 119 120 121 122 123 124 125 127 125 118 110 103 97 90 85 81 75 69 64 58 54 51 47 44 41 37 34 30 26 24 22 19 17 15 14 11 10 9 8 8 7 6 7
257 33 115 214 247 257 252 252 239 260 289 210 193 235 274 277 239 149 161 195 194 195 206 195 186 184 178 175 174 175 177 174 169 166 163 159 157 157 156 153 151 148 145 142 140 137 135 133 132 130 128 125 123 121 121 120 119 120 122 126 129 127 121 114 108 101 95 91 87 83 77 70 63 56 50 45 40 36 32 29 26 23 20 17 16 14 13 12 9 7 5 3 2 1 2 3 2
247 81 72 141 240 262 247 242 242 257 278 252 206 191 252 267 216 150 173 200 210 205 198 193 189 183 177 176 172 171 175 174 169 164 161 159 158 157 156 153 150 148 145 143 141 138 137 137 135 134 132 130 129 126 124 124 124 126 129 133 133 125 117 111 107 102 98 94 88 82 75 68 60 51 45 38 32 27 22 20 17 14 13 12 10 9 9 7 4 3 1 360 0 359 358 359 358
146 121 98 93 107 233 218 239 249 249 253 254 223 186 224 272 230 170 176 214 225 205 186 187 184 180 179 176 172 172 175 173 168 165 162 161 159 157 156 153 150 148 146 145 143 142 141 141 140 140 139 137 133 131 130 130 132 135 134 134 130 121 115 110 108 104 99 93 86 81 74 66 58 48 41 33 26 22 17 14 11 9 8 7 6 5 3 2 0 360 360 359 358 358 357 356 356
139 146 126 125 159 156 194 233 240 255 252 245 225 204 214 271 257 193 182 209 215 185 169 176 177 177 178 177 174 174 177 174 168 167 165 163 161 158 157 154 152 152 150 148 147 147 146 145 145 145 144 141 137 135 138 139 141 142 138 133 127 119 114 111 110 106 102 98 90 83 74 64 55 44 35 27 20 16 12 9 7 6 5 3 2 1 0 359 359 358 357 357 355 355 354 354 354
158 172 167 170 185 170 211 218 199 248 255 233 213 206 209 232 251 194 136 133 179 172 167 172 174 176 177 177 176 176 180 177 171 170 168 165 163 161 160 158 157 156 154 153 152 150 150 148 148 150 148 145 142 143 148 152 154 152 146 139 129 120 115 114 112 109 107 100 88 77 67 55 44 33 24 17 12 9 6 4 3 2 1 360 359 359 358 357 357 356 355 354 353 353 352 351 350
193 189 180 195 211 197 221 213 201 237 244 108 95 182 215 235 249 240 172 127 151 165 170 174 172 173 176 176 174 176 181 179 174 173 171 168 167 165 164 163 162 161 159 158 155 153 153 150 151 155 154 152 154 157 160 163 162 156 148 139 129 122 119 118 115 111 107 96 82 70 55 42 31 21 13 8 4 2 360 358 357 356 355 355 354 354 353 353 352 352 351 350 350 349 348 347 347
193 190 183 197 212 221 233 219 220 236 214 89 104 165 235 254 253 242 213 124 113 108 149 173 172 172 174 172 171 177 182 181 179 177 174 171 170 170 169 167 166 165 163 161 159 157 157 155 157 162 165 165 167 168 166 166 163 155 149 141 134 130 129 129 126 120 113 98 84 64 43 30 18 9 4 359 355 352 351 349 348 347 346 345 345 343 343 342 342 342 342 341 341 341 341 340 339
195 198 197 209 215 230 239 226 236 241 142 125 157 172 218 215 177 201 122 93 97 94 120 162 168 169 167 165 171 180 183 183 183 180 178 175 174 174 174 171 170 168 166 165 163 163 162 162 163 169 175 176 174 172 170 169 166 160 155 151 148 148 149 147 141 131 119 98 72 40 18 9 2 357 352 348 344 341 340 340 339 338 337 336 335 335 333 333 332 331 331 331 331 331 331 331 331
193 197 210 222 233 249 262 273 282 359 356 206 186 219 247 195 114 105 114 117 128 124 130 155 163 164 162 163 173 182 185 186 186 184 180 179 178 179 177 175 174 172 171 170 169 169 169 169 170 174 183 184 180 178 176 173 171 167 166 166 165 164 162 157 148 137 126 87 15 360 356 354 350 345 341 338 337 337 337 337 337 336 336 335 333 332 331 330 328 327 326 326 326 326 326 327 328
172 191 208 207 336 299 258 218 99 79 276 244 175 221 260 223 193 150 144 155 148 146 155 163 165 165 166 168 175 184 188 189 189 186 184 183 183 182 181 179 178 177 176 175 174 174 175 177 179 182 187 189 186 182 179 179 180 180 179 177 175 173 169 167 168 176 202 269 319 336 340 340 338 334 334 334 336 338 338 338 338 337 336 335 334 334 332 332 331 329 329 327 327 328 327 327 327
153 193 188 123 34 322 264 253 225 215 258 249 182 215 224 210 214 150 155 178 169 168 171 168 169 170 173 175 179 187 190 191 192 189 187 188 186 185 184 183 182 181 180 179 179 179 180 183 187 190 193 193 190 186 185 188 190 190 188 184 182 181 181 188 199 216 234 252 286 311 323 325 329 331 334 338 339 340 339 338 338 337 337 336 336 336 336 335 334 333 332 331 330 330 329 328 328
218 247 167 141 222 225 198 229 247 232 245 255 217 218 218 215 207 156 177 194 181 173 172 174 177 178 181 180 179 187 191 193 194 192 192 191 189 188 187 186 186 185 184 184 184 184 185 187 191 194 197 196 194 193 194 197 197 196 193 189 189 192 196 207 215 224 233 246 271 295 312 321 329 335 337 339 338 338 338 337 337 337 337 337 337 337 336 335 335 334 332 331 330 329 328 328 328
309 290 199 184 250 230 202 212 237 239 244 260 240 215 217 220 201 178 187 193 178 171 174 186 186 182 184 181 179 187 193 196 196 195 195 194 191 190 190 189 189 188 188 188 188 189 191 193 195 196 197 197 198 201 202 202 200 198 197 196 198 203 208 215 221 226 234 247 267 291 313 324 332 334 335 336 336 336 336 336 336 335 334 334 334 333 333 333 332 332 331 330 329 328 328 329 329
186 202 200 193 186 221 268 236 228 245 253 256 257 253 238 192 191 190 190 184 173 172 177 186 187 185 186 183 184 190 194 197 198 197 197 196 192 192 192 192 193 192 192 192 192 193 195 197 199 199 200 201 203 206 206 205 203 200 201 204 207 210 214 219 224 227 235 249 272 298 316 325 330 332 333 334 333 333 333 332 331 330 330 331 330 330 331 330 330 330 329 328 328 328 329 329 329
194 200 200 199 192 184 225 229 211 220 252 255 268 275 269 109 59 187 167 166 169 173 174 178 184 187 187 187 191 195 196 198 199 199 199 196 193 194 194 195 196 195 194 194 195 197 200 201 203 203 203 205 208 210 208 207 206 205 206 209 211 215 217 220 224 228 238 257 283 304 316 324 329 331 331 330 329 329 329 329 329 329 329 329 329 329 329 328 328 328 327 327 327 327 328 328 328